N5JNG Weather Reports


time (UTC)temp
F
wind
direction
speed
knots
gust
knots
rain 1hr
in
rain 24hr
in
rain mn
in
humidity
%
barometer
mb
20260504130255 75 147 6.1 8.7 0.00 0.00 0.00 100 1013.7
20260504110248 70 136 3.5 6.1 0.00 0.00 0.00 100 1013.3
20260504100247 69 125 4.3 7.0 0.00 0.00 0.00 100 1013.7
20260504081741 68 127 3.5 6.1 0.00 0.00 0.00 100 1014.4
20260504081242 68 127 3.5 6.1 0.00 0.00 0.00 100 1014.4
20260504080742 68 125 4.3 6.1 0.00 0.00 0.00 100 1014.5
20260504070240 69 132 4.3 7.8 0.00 0.00 0.00 100 1015.6
20260504060238 69 119 5.2 7.0 0.00 0.00 0.00 100 1016.3
20260504050736 68 133 4.3 7.0 0.00 0.00 0.00 100 1016.8
20260504050235 68 112 4.3 6.1 0.00 0.00 0.00 100 1016.9
20260504045734 68 121 4.3 7.0 0.00 0.00 0.00 100 1017.1
20260504045234 68 127 4.3 7.0 0.00 0.00 0.00 100 1017.2
20260504044734 68 121 4.3 6.1 0.00 0.00 0.00 100 1017.0
20260504044234 68 111 4.3 6.1 0.00 0.00 0.00 100 1017.1
20260504043734 67 122 4.3 6.1 0.00 0.00 0.00 100 1017.2
20260504043234 67 115 4.3 6.1 0.00 0.00 0.00 100 1017.3
20260504042735 67 112 4.3 6.1 0.00 0.00 0.00 100 1017.4
20260504042234 67 118 4.3 6.1 0.00 0.00 0.00 100 1017.4
20260504041734 67 111 4.3 6.1 0.00 0.00 0.00 100 1017.4
20260504041234 67 110 4.3 5.2 0.00 0.00 0.00 100 1017.4
20260504040732 67 113 4.3 7.0 0.00 0.00 0.00 100 1017.4
20260504040232 67 115 4.3 7.0 0.00 0.00 0.00 100 1017.3
20260504035732 67 109 5.2 6.1 0.00 0.00 0.00 100 1017.2
20260504035232 67 105 5.2 6.1 0.00 0.00 0.00 100 1017.2
20260504034232 67 109 5.2 6.1 0.00 0.00 0.00 100 1017.1
20260504033732 67 126 4.3 6.1 0.00 0.00 0.00 100 1017.1
20260504033232 67 108 4.3 5.2 0.00 0.00 0.00 100 1017.2
20260504032732 67 108 3.5 5.2 0.00 0.00 0.00 100 1017.2
20260504031731 67 108 3.5 5.2 0.00 0.00 0.00 100 1017.2
20260504031230 67 108 4.3 5.2 0.00 0.00 0.00 100 1017.2
20260504030730 68 108 3.5 5.2 0.00 0.00 0.00 100 1017.0
20260504030230 68 109 3.5 5.2 0.00 0.00 0.00 100 1017.0
20260504025730 68 109 3.5 5.2 0.00 0.00 0.00 100 1016.9
20260504024730 67 107 4.3 5.2 0.00 0.00 0.00 100 1016.8
20260504024231 68 107 4.3 5.2 0.00 0.00 0.00 100 1016.7
20260504023230 68 105 4.3 5.2 0.00 0.00 0.00 100 1016.7
20260504022731 68 105 3.5 5.2 0.00 0.00 0.00 100 1016.8
20260504022230 68 105 3.5 4.3 0.00 0.00 0.00 100 1016.8
20260504021731 69 101 3.5 5.2 0.00 0.00 0.00 100 1016.8
20260504021230 69 101 4.3 6.1 0.00 0.00 0.00 100 1016.7
20260504020731 69 100 4.3 6.1 0.00 0.00 0.00 100 1016.7
20260504020230 69 91 4.3 6.1 0.00 0.00 0.00 100 1016.7
20260504015730 69 99 4.3 6.1 0.00 0.00 0.00 100 1016.6
20260504014230 70 92 2.6 5.2 0.00 0.00 0.00 100 1016.5
20260504013730 70 93 3.5 5.2 0.00 0.00 0.00 100 1016.6
20260504013229 71 93 4.3 6.1 0.00 0.00 0.00 100 1016.5
20260504012726 71 96 4.3 6.1 0.00 0.00 0.00 100 1016.5
20260504012224 71 93 4.3 6.1 0.00 0.00 0.00 100 1016.4
20260504011722 71 94 5.2 6.1 0.00 0.00 0.00 100 1016.5
20260504011223 72 98 4.3 6.1 0.00 0.00 0.00 100 1016.5
20260504010722 72 105 4.3 6.1 0.00 0.00 0.00 100 1016.5
20260504010222 73 109 4.3 5.2 0.00 0.00 0.00 100 1016.7
20260504005723 73 109 4.3 5.2 0.00 0.00 0.00 100 1016.7
20260504005222 74 106 4.3 7.0 0.00 0.00 0.00 100 1016.6
20260504004722 74 106 5.2 7.0 0.00 0.00 0.00 100 1016.7
20260504004223 74 113 6.1 7.8 0.00 0.00 0.00 100 1016.7
20260504003722 75 111 6.1 7.8 0.00 0.00 0.00 100 1016.8
20260504003222 75 124 6.1 8.7 0.00 0.00 0.00 100 1016.8
20260504002722 75 112 6.1 9.6 0.00 0.00 0.00 100 1016.7
20260504001722 76 108 7.8 12.2 0.00 0.00 0.00 100 1016.9
20260504001222 76 110 7.8 12.2 0.00 0.00 0.00 100 1016.7
20260504000723 76 120 7.8 12.2 0.00 0.00 0.00 100 1016.8
20260504000223 76 120 8.7 11.3 0.00 0.00 0.00 100 1016.8
20260503235723 76 96 8.7 12.2 0.00 0.00 0.00 100 1016.8
20260503235222 76 116 8.7 12.2 0.00 0.00 0.00 100 1016.7
20260503234722 77 126 7.8 11.3 0.00 0.00 0.00 100 1016.8
20260503234223 77 119 7.8 11.3 0.00 0.00 0.00 100 1016.7
20260503233222 77 90 7.8 12.2 0.00 0.00 0.00 100 1016.8
20260503232723 77 123 8.7 13.0 0.00 0.00 0.00 100 1017.0
20260503232222 77 112 8.7 13.0 0.00 0.00 0.00 100 1017.0
20260503231722 77 121 8.7 12.2 0.00 0.00 0.00 100 1017.1
20260503231223 77 127 8.7 13.9 0.00 0.00 0.00 100 1017.1
20260503230723 78 118 9.6 13.9 0.00 0.00 0.00 100 1017.0
20260503225223 78 112 7.8 13.0 0.00 0.00 0.00 100 1017.1
20260503224723 78 102 7.8 12.2 0.00 0.00 0.00 100 1017.1
20260503224222 78 105 8.7 12.2 0.00 0.00 0.00 100 1017.1
20260503223722 78 103 9.6 15.6 0.00 0.00 0.00 100 1017.1
20260503222723 78 84 7.8 13.9 0.00 0.00 0.00 100 1017.2
20260503222220 78 116 8.7 12.2 0.00 0.00 0.00 100 1017.4
20260503221221 78 155 9.6 15.6 0.00 0.00 0.00 100 1017.4
20260503220720 79 103 8.7 15.6 0.00 0.00 0.00 100 1017.5
20260503220220 78 118 8.7 13.9 0.00 0.00 0.00 100 1017.6
20260503215721 78 107 8.7 13.9 0.00 0.00 0.00 100 1017.6
20260503215220 78 124 9.6 15.6 0.00 0.00 0.00 100 1017.7
20260503214720 79 109 9.6 15.6 0.00 0.00 0.00 100 1017.8
20260503213219 79 125 8.7 20.0 0.00 0.00 0.00 100 1018.0
20260503212719 79 103 7.8 13.9 0.00 0.00 0.00 100 1018.1
20260503211719 79 153 9.6 16.5 0.00 0.00 0.00 100 1018.4
20260503211219 80 87 8.7 13.9 0.00 0.00 0.00 100 1018.3
20260503210718 80 98 8.7 13.9 0.00 0.00 0.00 100 1018.5
20260503210219 80 119 7.8 12.2 0.00 0.00 0.00 100 1018.5
20260503205719 80 121 8.7 13.0 0.00 0.00 0.00 100 1018.5
20260503204719 80 117 9.6 16.5 0.00 0.00 0.00 100 1018.6
20260503204219 80 90 8.7 16.5 0.00 0.00 0.00 100 1018.7
20260503203217 80 92 8.7 15.6 0.00 0.00 0.00 100 1018.9
20260503202718 80 93 7.8 13.0 0.00 0.00 0.00 100 1019.1
20260503202217 80 88 8.7 16.5 0.00 0.00 0.00 100 1019.1
20260503201716 80 113 8.7 16.5 0.00 0.00 0.00 100 1019.1
20260503200717 80 107 8.7 15.6 0.00 0.00 0.00 100 1019.3
20260503200215 80 103 8.7 15.6 0.00 0.00 0.00 100 1019.3
20260503195714 80 82 9.6 15.6 0.00 0.00 0.00 100 1019.4
20260503195215 80 141 8.7 15.6 0.00 0.00 0.00 100 1019.5
20260503194715 80 106 8.7 15.6 0.00 0.00 0.00 100 1019.5
20260503194214 80 98 8.7 15.6 0.00 0.00 0.00 100 1019.6
20260503193213 80 115 8.7 15.6 0.00 0.00 0.00 100 1019.6
20260503192713 80 111 8.7 15.6 0.00 0.00 0.00 100 1019.6
20260503192213 80 103 8.7 13.9 0.00 0.00 0.00 100 1019.7
20260503191712 80 121 8.7 13.9 0.00 0.00 0.00 100 1019.8
20260503190711 80 116 9.6 18.2 0.00 0.00 0.00 100 1020.0
20260503190211 80 88 9.6 18.2 0.00 0.00 0.00 100 1020.0
20260503185711 80 123 8.7 17.4 0.00 0.00 0.00 100 1020.1
20260503184711 80 98 8.7 15.6 0.00 0.00 0.00 100 1020.1
20260503184210 80 137 8.7 16.5 0.00 0.00 0.00 100 1020.1
20260503183711 80 118 9.6 16.5 0.00 0.00 0.00 100 1020.2
20260503183211 80 87 9.6 16.5 0.00 0.00 0.00 100 1020.2
20260503182711 80 110 9.6 18.2 0.00 0.00 0.00 100 1020.3
20260503181708 80 113 8.7 13.0 0.00 0.00 0.00 100 1020.4
20260503181209 80 113 8.7 17.4 0.00 0.00 0.00 100 1020.6
20260503180709 80 78 7.8 17.4 0.00 0.00 0.00 100 1020.6
20260503180209 80 117 7.8 17.4 0.00 0.00 0.00 100 1020.7
20260503175709 80 77 9.6 17.4 0.00 0.00 0.00 100 1020.8
20260503175209 80 74 9.6 15.6 0.00 0.00 0.00 100 1020.8
20260503174709 80 92 9.6 13.9 0.00 0.00 0.00 100 1020.8
20260503174209 80 75 9.6 15.6 0.00 0.00 0.00 100 1020.9
20260503173207 80 113 7.0 12.2 0.00 0.00 0.00 100 1021.0
20260503172707 80 82 7.8 15.6 0.00 0.00 0.00 100 1021.1
20260503172207 80 78 8.7 15.6 0.00 0.00 0.00 100 1021.2
20260503171707 80 96 8.7 17.4 0.00 0.00 0.00 100 1021.2
20260503171207 80 114 8.7 17.4 0.00 0.00 0.00 100 1021.3
20260503170707 80 107 7.8 15.6 0.00 0.00 0.00 100 1021.3
20260503170207 80 81 7.8 15.6 0.00 0.00 0.00 100 1021.2
20260503160205 78 94 7.0 10.4 0.00 0.00 0.00 100 1021.5
20260503150702 77 90 4.3 8.7 0.00 0.00 0.00 100 1021.5
20260503150201 76 73 4.3 8.7 0.00 0.00 0.00 100 1021.4
20260503140159 73 0 4.3 7.0 0.00 0.00 0.00 100 1021.0
20260503130657 67 339 3.5 5.2 0.00 0.00 0.00 100 1020.4